Weather History for Slayton, MN

Change the Weather History Date:

Saturday, April 26, 2014

  Actual Average (KOTG) Record (KOTG)
Temperature  
Mean Temperature 48 °F -  
Max Temperature 59 °F 59 °F 83 °F (1981)
Min Temperature 38 °F 37 °F 26 °F (2002)
Degree Days  
Heating Degree Days 16    
Moisture  
Dew Point 35 °F    
Average Humidity 62    
Maximum Humidity 94    
Minimum Humidity 35    
Precipitation  
Precipitation 0.00 in - - ()
Sea Level Pressure  
Sea Level Pressure 29.82 in    
Wind  
Wind Speed 16 mph (East)    
Max Wind Speed 31 mph    
Max Gust Speed 37 mph    
Visibility 10 miles    
Events Thunderstorm    
Averages and records for this station are not official NWS values.
T = Trace of Precipitation, MM = Missing Value Source: NWS Daily Summary

Daily Weather History Graph

Daily Weather History Graph

Search for Another Location

Airport:

Trip Planner

Search our weather history database for the weather conditions in past years. The results will help you decide how hot, cold, wet, or windy it might be!

Date:

Astronomy

Apr. 26, 2014 Rise Set
Actual Time 6:22 AM CDT 8:20 PM CDT
Civil Twilight 5:51 AM CDT 8:51 PM CDT
Nautical Twilight 5:12 AM CDT 9:29 PM CDT
Astronomical Twilight 4:31 AM CDT 10:11 PM CDT
Moon 4:53 AM CDT (4/26) 5:44 PM CDT (4/26)
Length of Visible Light 15h 00m
Length of Day
13h 58m
Waning Crescent, 8% of the Moon is Illuminated
Apr 26
Waning Crescent
Apr 29
New
May 6
First Quarter
May 14
Full
May 21
Last Quarter

Hourly Weather History & Observations

Time (CDT) Temp. Windchill Dew Point Humidity Pressure Visibility Wind Dir Wind Speed Gust Speed Precip Events Conditions
12:12 AM 49.1 °F - 39.2 °F 69% 29.88 in 10.0 mi NE 9.2 mph - N/A   Clear
12:33 AM 47.8 °F - 39.2 °F 72% 29.88 in 10.0 mi ENE 10.4 mph - N/A   Clear
12:52 AM 46.9 °F - 39.0 °F 74% 29.88 in 10.0 mi ENE 9.2 mph - N/A   Clear
1:13 AM 46.9 °F - 39.0 °F 74% 29.88 in 10.0 mi ENE 10.4 mph - N/A   Clear
1:34 AM 45.9 °F 41.2 °F 39.2 °F 78% 29.89 in 10.0 mi ENE 9.2 mph - N/A   Clear
1:53 AM 44.8 °F 40.4 °F 39.2 °F 81% 29.89 in 10.0 mi ENE 8.1 mph - N/A   Clear
2:13 AM 44.8 °F 40.4 °F 39.2 °F 81% 29.89 in 10.0 mi ENE 8.1 mph - N/A   Clear
2:32 AM 44.2 °F 39.2 °F 38.8 °F 81% 29.88 in 10.0 mi ENE 9.2 mph - N/A   Clear
2:53 AM 44.1 °F 38.6 °F 38.7 °F 81% 29.88 in 10.0 mi ENE 10.4 mph - N/A   Clear
3:13 AM 43.3 °F 38.1 °F 38.7 °F 84% 29.88 in 10.0 mi ENE 9.2 mph - N/A   Clear
3:33 AM 42.4 °F 37.0 °F 38.7 °F 86% 29.88 in 10.0 mi ENE 9.2 mph - N/A   Clear
3:53 AM 41.5 °F 35.4 °F 38.5 °F 89% 29.87 in 10.0 mi ENE 10.4 mph - N/A   Clear
4:13 AM 40.6 °F 34.8 °F 38.3 °F 91% 29.88 in 10.0 mi ENE 9.2 mph - N/A   Clear
4:34 AM 40.6 °F 34.3 °F 38.5 °F 92% 29.89 in 10.0 mi East 10.4 mph - N/A   Clear
4:52 AM 40.1 °F 33.6 °F 37.9 °F 92% 29.88 in 10.0 mi ENE 10.4 mph - N/A   Clear
5:12 AM 39.4 °F 32.3 °F 37.8 °F 94% 29.88 in 10.0 mi ENE 11.5 mph - N/A   Clear
5:32 AM 39.2 °F 32.0 °F 37.4 °F 93% 29.88 in 10.0 mi East 11.5 mph - N/A   Clear
5:53 AM 39.2 °F 32.0 °F 36.5 °F 90% 29.89 in 10.0 mi East 11.5 mph - N/A   Clear
6:13 AM 38.7 °F 30.9 °F 35.8 °F 89% 29.89 in 10.0 mi East 12.7 mph - N/A   Clear
6:31 AM 38.5 °F 30.7 °F 34.9 °F 87% 29.89 in 10.0 mi East 12.7 mph - N/A   Clear
6:52 AM 38.5 °F 30.7 °F 34.7 °F 86% 29.90 in 10.0 mi East 12.7 mph - N/A   Clear
7:13 AM 38.7 °F 30.9 °F 34.2 °F 84% 29.91 in 10.0 mi ENE 12.7 mph - N/A   Clear
7:33 AM 39.4 °F 30.7 °F 34.5 °F 83% 29.90 in 10.0 mi East 16.1 mph - N/A   Clear
7:53 AM 40.1 °F 32.0 °F 34.3 °F 80% 29.91 in 10.0 mi East 15.0 mph 18.4 mph N/A   Clear
8:13 AM 40.6 °F 31.4 °F 34.3 °F 78% 29.89 in 10.0 mi East 19.6 mph 25.3 mph N/A   Clear
8:32 AM 41.4 °F 32.4 °F 34.2 °F 76% 29.89 in 10.0 mi East 19.6 mph - N/A   Clear
9:13 AM 43.2 °F 35.6 °F 34.5 °F 72% 29.90 in 10.0 mi East 16.1 mph 21.9 mph N/A   Clear
9:33 AM 44.8 °F 36.6 °F 34.2 °F 66% 29.90 in 10.0 mi East 20.7 mph 25.3 mph N/A   Clear
9:53 AM 45.9 °F 38.8 °F 33.8 °F 63% 29.89 in 10.0 mi East 17.3 mph 25.3 mph N/A   Clear
10:13 AM 47.3 °F - 35.1 °F 62% 29.89 in 10.0 mi East 17.3 mph - N/A   Clear
10:34 AM 48.2 °F - 35.1 °F 60% 29.89 in 10.0 mi East 15.0 mph - N/A   Clear
10:53 AM 49.5 °F - 35.2 °F 58% 29.88 in 10.0 mi East 18.4 mph 27.6 mph N/A   Clear
11:12 AM 50.2 °F - 35.4 °F 57% 29.87 in 10.0 mi East 18.4 mph 23.0 mph N/A   Clear
11:53 AM 51.6 °F - 35.4 °F 54% 29.86 in 10.0 mi East 18.4 mph 26.5 mph N/A   Clear
12:13 PM 52.2 °F - 35.2 °F 53% 29.86 in 10.0 mi East 24.2 mph 28.8 mph N/A   Clear
12:32 PM 53.1 °F - 34.9 °F 50% 29.84 in 10.0 mi East 24.2 mph 29.9 mph N/A   Clear
12:53 PM 55.0 °F - 34.2 °F 45% 29.83 in 10.0 mi East 24.2 mph 32.2 mph N/A   Clear
1:13 PM 55.6 °F - 32.9 °F 42% 29.81 in 10.0 mi East 26.5 mph 34.5 mph N/A   Clear
1:33 PM 56.1 °F - 32.2 °F 40% 29.81 in 10.0 mi East 25.3 mph 35.7 mph N/A   Clear
1:53 PM 57.7 °F - 33.1 °F 39% 29.80 in 10.0 mi East 26.5 mph 33.4 mph N/A   Clear
2:13 PM 57.7 °F - 32.5 °F 39% 29.79 in 10.0 mi East 26.5 mph 35.7 mph N/A   Clear
2:34 PM 59.0 °F - 33.1 °F 38% 29.78 in 10.0 mi East 25.3 mph 32.2 mph N/A   Clear
2:53 PM 59.9 °F - 32.0 °F 35% 29.77 in 10.0 mi East 31.1 mph 36.8 mph N/A   Clear
3:13 PM 59.9 °F - 32.9 °F 36% 29.77 in 10.0 mi East 25.3 mph 33.4 mph N/A   Scattered Clouds
3:33 PM 59.4 °F - 32.4 °F 36% 29.75 in 10.0 mi East 25.3 mph 34.5 mph N/A   Mostly Cloudy
3:53 PM 58.6 °F - 32.5 °F 37% 29.75 in 10.0 mi East 28.8 mph 36.8 mph N/A   Mostly Cloudy
4:13 PM 58.3 °F - 33.1 °F 39% 29.75 in 10.0 mi East 26.5 mph 34.5 mph N/A   Mostly Cloudy
4:32 PM 58.8 °F - 32.9 °F 38% 29.73 in 10.0 mi East 23.0 mph 36.8 mph N/A   Mostly Cloudy
4:54 PM 59.4 °F - 32.5 °F 36% 29.73 in 10.0 mi East 26.5 mph 33.4 mph N/A   Scattered Clouds
5:13 PM 57.9 °F - 33.3 °F 39% 29.73 in 10.0 mi East 28.8 mph 35.7 mph N/A   Overcast
5:33 PM 57.2 °F - 34.0 °F 42% 29.72 in 10.0 mi East 26.5 mph 34.5 mph N/A   Overcast
5:53 PM 56.5 °F - 34.9 °F 44% 29.71 in 10.0 mi East 23.0 mph 31.1 mph N/A   Overcast
6:12 PM 55.6 °F - 35.1 °F 46% 29.72 in 10.0 mi East 24.2 mph 32.2 mph N/A   Overcast
6:33 PM 55.4 °F - 35.4 °F 47% 29.72 in 10.0 mi East 20.7 mph 26.5 mph N/A   Overcast
6:52 PM 55.0 °F - 35.2 °F 47% 29.72 in 10.0 mi East 21.9 mph 31.1 mph N/A   Overcast
7:12 PM 54.3 °F - 34.7 °F 48% 29.72 in 10.0 mi East 27.6 mph 35.7 mph N/A Thunderstorm Overcast
7:33 PM 53.6 °F - 34.5 °F 48% 29.72 in 10.0 mi East 24.2 mph 31.1 mph N/A   Overcast
7:53 PM 52.2 °F - 34.7 °F 51% 29.71 in 10.0 mi East 25.3 mph 31.1 mph N/A   Overcast
8:14 PM 51.4 °F - 34.7 °F 53% 29.73 in 10.0 mi East 21.9 mph 31.1 mph N/A   Overcast
8:33 PM 50.9 °F - 34.3 °F 53% 29.73 in 10.0 mi East 23.0 mph 29.9 mph N/A   Overcast
8:53 PM 50.4 °F - 34.0 °F 53% 29.73 in 10.0 mi East 23.0 mph 34.5 mph N/A   Overcast
9:13 PM 50.0 °F - 33.8 °F 54% 29.74 in 10.0 mi East 25.3 mph 34.5 mph N/A   Overcast
9:33 PM 49.6 °F - 33.4 °F 54% 29.74 in 10.0 mi East 25.3 mph 31.1 mph N/A   Overcast
9:54 PM 49.3 °F - 33.1 °F 54% 29.74 in 10.0 mi East 24.2 mph 34.5 mph N/A   Overcast
10:12 PM 49.1 °F - 33.3 °F 54% 29.74 in 10.0 mi East 23.0 mph 31.1 mph N/A   Overcast
10:34 PM 49.1 °F - 33.1 °F 54% 29.73 in 10.0 mi East 24.2 mph 33.4 mph N/A   Overcast
10:53 PM 48.7 °F - 33.1 °F 55% 29.73 in 10.0 mi East 23.0 mph 35.7 mph N/A   Mostly Cloudy
11:13 PM 48.2 °F - 33.3 °F 56% 29.73 in 10.0 mi East 25.3 mph 33.4 mph N/A   Mostly Cloudy
11:33 PM 48.0 °F - 33.6 °F 57% 29.72 in 10.0 mi East 29.9 mph 36.8 mph N/A   Overcast
11:53 PM 47.8 °F - 34.0 °F 59% 29.71 in 10.0 mi East 26.5 mph 35.7 mph N/A   Overcast